Location: Bay Shore Mobile Home Park
(38.5762°N, 75.0841°W)
Time: 09:19:52
(UTC+00:00)

CZ-2D R/B - Pass Details

Date: 15 November 2025
Orbit: 526 x 597 km, 98.0° (Epoch: 05 December)

Event Time Altitude Azimuth Distance (km) Brightness Sun altitude
Rises 22:32:14 0° 138° (SE) 2,765 6.6 -9.1°
Reaches altitude 10° 22:34:37 10° 125° (SE) 1,885 5.7 -9.6°
Maximum altitude 22:37:59 25° 69° (ENE) 1,188 4.4 -10.2°
Drops below altitude 10° 22:41:25 10° 14° (NNE) 1,926 5.8 -10.9°
Sets 22:43:52 0° 1° (N) 2,840 6.8 -11.3°
